FW5345 Weather Reports


time (UTC)temp
C
wind
direction
speed
KPH
gust
KPH
rain 1hr
cm
rain 24hr
cm
rain mn
cm
humidity
%
barometer
mb
20260508234535 19 270 8.0 17.7 0.00 0.00 0.00 34 1020.4
20260508233032 18 311 4.8 12.9 0.00 0.00 0.00 33 1020.3
20260508231534 19 276 9.7 25.7 0.00 0.00 0.00 32 1020.3
20260508224533 19 296 12.9 30.6 0.00 0.00 0.00 29 1020.1
20260508223150 19 327 3.2 14.5 0.00 0.00 0.00 29 1020.1
20260508221537 19 290 9.7 25.7 0.00 0.00 0.00 27 1020.1
20260508220034 19 213 6.4 20.9 0.00 0.00 0.00 27 1020.1
20260508214531 19 247 8.0 30.6 0.00 0.00 0.00 26 1020.2
20260508213033 18 243 9.7 24.1 0.00 0.00 0.00 25 1020.2
20260508211535 18 272 9.7 32.2 0.00 0.00 0.00 24 1020.1
20260508210035 18 246 11.3 33.8 0.00 0.00 0.00 22 1020.0
20260508204532 18 230 11.3 30.6 0.00 0.00 0.00 24 1020.1
20260508203116 18 283 12.9 27.4 0.00 0.00 0.00 27 1019.9
20260508201529 17 278 9.7 29.0 0.00 0.00 0.00 27 1019.9
20260508200029 17 227 9.7 24.1 0.00 0.00 0.00 25 1019.9
20260508193037 17 238 11.3 33.8 0.00 0.00 0.00 27 1019.7
20260508191643 17 230 11.3 40.2 0.00 0.00 0.00 29 1019.6
20260508190031 18 246 8.0 24.1 0.00 0.00 0.00 32 1019.6
20260508184531 16 266 8.0 17.7 0.00 0.00 0.00 41 1019.6
20260508183036 15 343 6.4 17.7 0.00 0.00 0.00 55 1019.5
20260508181538 13 8 6.4 9.7 0.00 0.00 0.00 59 1019.3
20260508180036 12 22 3.2 6.4 0.00 0.00 0.00 61 1019.4
20260508174535 12 6 0.0 4.8 0.00 0.00 0.00 61 1019.4
20260508173035 12 19 3.2 9.7 0.00 0.00 0.00 63 1019.1
20260508171536 11 53 1.6 6.4 0.00 0.00 0.00 64 1018.9
20260508170030 11 26 3.2 11.3 0.00 0.00 0.00 64 1019.0
20260508164535 11 6 4.8 12.9 0.00 0.00 0.00 65 1018.9
20260508163035 11 23 8.0 17.7 0.00 0.00 0.00 64 1018.9
20260508161653 12 348 11.3 25.7 0.00 0.00 0.00 64 1018.8
20260508160036 12 11 16.1 27.4 0.00 0.00 0.00 64 1018.8
20260508154535 12 14 14.5 27.4 0.00 0.00 0.00 64 1018.8
20260508151609 12 5 12.9 25.7 0.00 0.00 0.00 64 1018.5
20260508150031 12 353 12.9 25.7 0.00 0.00 0.00 62 1018.4
20260508144535 12 342 16.1 25.7 0.00 0.00 0.00 60 1018.2
20260508143035 12 342 14.5 22.5 0.00 0.00 0.00 60 1018.0
20260508141644 12 336 12.9 22.5 0.00 0.00 0.00 61 1017.8
20260508140037 12 321 9.7 25.7 0.00 0.00 0.00 60 1017.7
20260508134643 12 312 9.7 19.3 0.00 0.00 0.00 61 1017.7
20260508133035 12 316 11.3 20.9 0.00 0.00 0.00 62 1017.5
20260508131535 12 309 9.7 22.5 0.00 0.00 0.00 63 1017.5
20260508130037 9 330 8.0 12.9 0.00 0.00 0.00 71 1017.1
20260508124537 7 110 1.6 8.0 0.00 0.00 0.00 72 1017.1
20260508123033 7 150 3.2 8.0 0.00 0.00 0.00 70 1017.1
20260508121534 7 130 1.6 6.4 0.00 0.00 0.00 68 1017.0
20260508120036 7 153 4.8 9.7 0.00 0.00 0.00 67 1016.9
20260508111532 6 142 3.2 6.4 0.00 0.00 0.00 61 1016.6
20260508104535 7 129 3.2 6.4 0.00 0.00 0.00 60 1016.6
20260508103036 6 120 4.8 14.5 0.00 0.00 0.00 62 1016.6
20260508100033 6 128 6.4 12.9 0.00 0.00 0.00 62 1016.6
20260508094610 7 133 6.4 11.3 0.00 0.00 0.00 62 1016.6
20260508093031 6 138 8.0 12.9 0.00 0.00 0.00 64 1016.5
20260508090043 6 134 4.8 8.0 0.00 0.00 0.00 65 1016.5
20260508090036 6 142 6.4 11.3 0.00 0.00 0.00 66 1016.5
20260508081530 6 155 4.8 8.0 0.00 0.00 0.00 65 1016.6
20260508080032 7 168 4.8 6.4 0.00 0.00 0.00 63 1016.6
20260508074537 7 159 4.8 8.0 0.00 0.00 0.00 61 1016.7
20260508071533 7 154 6.4 14.5 0.00 0.00 0.00 62 1016.8
20260508070035 7 149 6.4 9.7 0.00 0.00 0.00 61 1016.8
20260508064609 8 155 6.4 11.3 0.00 0.00 0.00 59 1016.9
20260508063035 8 165 4.8 9.7 0.00 0.00 0.00 59 1016.9
20260508061610 8 149 8.0 12.9 0.00 0.00 0.00 57 1017.0
20260508060035 8 162 6.4 11.3 0.00 0.00 0.00 55 1017.1
20260508054537 9 157 3.2 8.0 0.00 0.00 0.00 51 1017.1
20260508053035 10 152 1.6 9.7 0.00 0.00 0.00 49 1017.1
20260508051534 11 140 3.2 9.7 0.00 0.00 0.00 45 1017.1
20260508050034 12 191 3.2 11.3 0.00 0.00 0.00 42 1017.1
20260508044532 12 294 3.2 9.7 0.00 0.00 0.00 40 1017.1
20260508041535 15 325 11.3 20.9 0.00 0.00 0.00 32 1016.7
20260508040036 16 318 12.9 25.7 0.00 0.00 0.00 28 1016.6
20260508034642 16 306 14.5 24.1 0.00 0.00 0.00 30 1016.4
20260508033111 16 316 12.9 25.7 0.00 0.00 0.00 34 1016.1
20260508030030 16 320 9.7 20.9 0.00 0.00 0.00 35 1016.3
20260508024530 17 316 9.7 25.7 0.00 0.00 0.00 34 1016.3
20260508021647 18 318 9.7 12.9 0.00 0.00 0.00 36 1016.0
20260508020034 19 314 11.3 20.9 0.00 0.00 0.00 33 1016.0
20260508011642 20 312 9.7 27.4 0.00 0.00 0.00 30 1016.2
20260508010035 20 310 11.3 19.3 0.00 0.00 0.00 29 1016.2
20260508004529 20 307 11.3 22.5 0.00 0.00 0.00 29 1016.2
20260508003108 21 311 14.5 25.7 0.00 0.00 0.00 29 1016.1
20260508001536 21 299 11.3 29.0 0.00 0.00 0.00 27 1016.1